TimeEST,TemperatureF,Dew PointF,Humidity,Sea Level PressureIn,VisibilityMPH,Wind Direction,Wind SpeedMPH,Gust SpeedMPH,PrecipitationIn,Events,Conditions,WindDirDegrees,DateUTC
12:58 AM,41.0,30.0,65,30.25,10.0,NE,6.9,-,N/A,,Clear,50,2013-02-22 05:58:00
1:58 AM,41.0,28.9,62,30.25,10.0,NE,8.1,-,N/A,,Scattered Clouds,50,2013-02-22 06:58:00
2:58 AM,41.0,28.9,62,30.28,10.0,NNE,11.5,-,N/A,,Mostly Cloudy,20,2013-02-22 07:58:00
3:58 AM,41.0,28.0,60,30.30,10.0,NE,9.2,-,N/A,,Overcast,40,2013-02-22 08:58:00
4:58 AM,39.9,28.0,63,30.30,10.0,NNE,10.4,-,N/A,,Scattered Clouds,30,2013-02-22 09:58:00
5:58 AM,39.9,28.0,63,30.31,10.0,NNE,8.1,-,N/A,,Partly Cloudy,30,2013-02-22 10:58:00
6:58 AM,39.0,28.0,65,30.33,10.0,NE,11.5,-,N/A,,Clear,40,2013-02-22 11:58:00
7:58 AM,39.9,30.0,68,30.29,10.0,ENE,9.2,17.3,N/A,,Clear,70,2013-02-22 12:58:00
8:58 AM,42.1,32.0,67,30.32,10.0,NNE,8.1,-,N/A,,Mostly Cloudy,30,2013-02-22 13:58:00
9:58 AM,43.0,32.0,65,30.31,10.0,NE,8.1,-,N/A,,Overcast,50,2013-02-22 14:58:00
10:58 AM,44.1,33.1,65,30.32,10.0,NNE,11.5,-,N/A,,Overcast,30,2013-02-22 15:58:00
11:58 AM,46.9,36.0,66,30.27,10.0,ENE,10.4,-,N/A,,Mostly Cloudy,70,2013-02-22 16:58:00
12:58 PM,46.9,37.0,68,30.26,10.0,ENE,8.1,-,N/A,,Overcast,70,2013-02-22 17:58:00
1:58 PM,48.9,39.0,69,30.22,10.0,NE,11.5,-,N/A,,Overcast,50,2013-02-22 18:58:00
2:58 PM,46.9,39.0,74,30.22,10.0,NNE,10.4,-,N/A,,Overcast,30,2013-02-22 19:58:00
3:58 PM,46.0,39.0,76,30.20,10.0,NE,6.9,-,N/A,,Overcast,50,2013-02-22 20:58:00
4:58 PM,46.0,39.9,79,30.19,10.0,NE,6.9,-,N/A,,Overcast,40,2013-02-22 21:58:00
5:58 PM,46.9,41.0,80,30.19,10.0,NE,8.1,-,N/A,,Overcast,50,2013-02-22 22:58:00
6:58 PM,46.9,42.1,83,30.18,10.0,NE,8.1,-,N/A,,Overcast,50,2013-02-22 23:58:00
7:58 PM,46.9,43.0,86,30.18,10.0,NE,8.1,-,N/A,,Overcast,50,2013-02-23 00:58:00
8:51 PM,46.4,44.6,93,30.16,10.0,ENE,8.1,-,0.00,,Overcast,60,2013-02-23 01:51:00
8:58 PM,46.9,44.1,90,30.17,10.0,NE,8.1,-,0.00,,Overcast,50,2013-02-23 01:58:00
9:18 PM,46.4,44.6,93,30.18,10.0,NE,5.8,-,0.00,Rain,Light Rain,40,2013-02-23 02:18:00
9:58 PM,46.9,45.0,93,30.15,9.0,East,5.8,-,0.00,,Overcast,80,2013-02-23 02:58:00
10:23 PM,46.4,46.4,100,30.13,9.0,East,4.6,-,N/A,,Mostly Cloudy,80,2013-02-23 03:23:00
10:42 PM,46.4,46.4,100,30.13,9.0,ENE,4.6,-,N/A,,Mostly Cloudy,60,2013-02-23 03:42:00
10:58 PM,48.0,46.0,93,30.13,9.0,East,3.5,-,N/A,,Mostly Cloudy,90,2013-02-23 03:58:00
11:30 PM,48.2,48.2,100,30.10,9.0,Calm,Calm,-,N/A,,Overcast,0,2013-02-23 04:30:00
11:58 PM,52.0,50.0,93,30.09,9.0,ESE,5.8,-,N/A,,Overcast,120,2013-02-23 04:58:00